sat.trackr.live / text

‹ back to catalog

AMAZONAS 5

NORAD 42934 · 2017-053A

PAYLOAD ACTIVE UNKNOWN

§ Identity

Operator
Country
SPN
Launch date
2017-09-11
Launch site
TYMSC
Launch vehicle
Mass (kg)
RCS (m²)

Purposes: comms

External: N2YO · Heavens-Above · Gunter

§ Orbital elements

Epoch: 2026-09-19T03:22:51.302784Z

Period
1,436.33 min
Inclination
0.0477°
Eccentricity
0.0003909
Mean motion
1.00255307 rev/d
Perigee alt
35,774.7 km
Apogee alt
35,807.7 km
Semi-major
42,169.4 km
B*
0.0000e+0
RAAN
318.6340°
Arg perigee
274.9492°
Mean anomaly
114.1642°
Rev number
3,298

§ Raw data

AMAZONAS 51 42934U 17053A   26262.14087156 -.00000286  00000+0  00000+0 0  99932 42934   0.0477 318.6340 0003909 274.9492 114.1642  1.00255307 32989

JSON: /api/v1/satellites/42934 · /tle

For live sub-satellite position, see the globe view (requires WebGL).

§ Visibility from observer

Set your observer location to see the next 7 days of passes ≥ 10°. The values pass through the URL so the page stays shareable.

No JS? Fill the form by hand. The geolocation button needs JavaScript.